Regional Weather Roundup
Issued by NWS

Home | Current Version | Previous Version | Graphics & Text | Print | Product List | Glossary On
Versions: 1 2 3 4 5 6 7 8 9 10 11 12 13 14 15 16 17 18 19 20 21 22 23 24 25 26 27 28 29 30 31 32 33 34 35 36 37 38 39 40 41 42 43 44 45 46 47 48 49 50
952
ASUS43 KBIS 231831
RWRND
NORTH DAKOTA REGIONAL WEATHER ROUNDUP
NATIONAL WEATHER SERVICE EASTERN NORTH DAKOTA/GRAND FORKS ND
100 PM CDT MON APR 23 2018

  NOTE: "FAIR" INDICATES FEW OR NO CLOUDS BELOW 12,000 FEET WITH NO
  SIGNIFICANT WEATHER AND/OR OBSTRUCTIONS TO VISIBILITY.

NDZ001>003-009>011-017-231900-
...NORTHWEST NORTH DAKOTA...

CITY           SKY/WX    TMP DP  RH WIND       PRES   REMARKS
WILLISTON      CLOUDY    48  33  56 N15       30.31F
6HR MIN TEMP:  38; 6HR MAX TEMP:  48;

MINOT          FAIR      53  34  48 NW14      30.26S
MINOT AFB      CLOUDY    52  34  51 NW14      30.25S
6HR MIN TEMP:  29; 6HR MAX TEMP:  52;

$$

NDZ018>021-031>035-040>046-231900-
...SOUTHWEST NORTH DAKOTA...

CITY           SKY/WX    TMP DP  RH WIND       PRES   REMARKS
BISMARCK       FAIR      64  31  28 NE14G21   30.20F
DICKINSON      CLOUDY    53  32  44 NE22      30.21S
GARRISON         N/A     53  36  52 N13       30.25F
HETTINGER      FAIR      62  34  35 NE20G26   30.16F
$$

NDZ004>008-012>016-024-026-027-054-231900-
...NORTHEAST NORTH DAKOTA...

CITY           SKY/WX    TMP DP  RH WIND       PRES   REMARKS
GRAND FORKS    FAIR      59  38  45 N9G17     30.20S
GRAND FORKS AF FAIR      61  36  39 N12       30.20S
DEVILS LAKE    FAIR      55  34  45 N15       30.23S
$$

NDZ022-023-025-028>030-036>039-047>053-231900-
...SOUTHEAST NORTH DAKOTA...

CITY           SKY/WX    TMP DP  RH WIND       PRES   REMARKS
JAMESTOWN      FAIR      61  39  44 E12       30.19S
FARGO          FAIR      61  44  53 N7        30.18F
WAHPETON       FAIR      63  39  42 SW3       30.18F
$$




USA.gov is the U.S. government's official web portal to all federal, state and local government web resources and services.